Date String (YYYY-MM-DD hh:mm:ss) UTC,Instrument flags,absolute air pressure of the measurement (hPa),sample flow rate (lpm),inlet stack bypass flow (lpm),air temperature of the measurement (°C),ambient temperature measured by the external sensor (°C),aerosol sample conditioner tube jacket temperature (°C),OPC LED temperature (°C),internal box temperature (°C),relative humidity of the measurement (%),span deviation,mass concentration of particles derived from Lorenz-Mie calculation of OPC scattering (μg/m³),mass concentration of particles derived from Lorenz-Mie calculation of OPC scattering (μg/m³),mass concentration of particles derived from Lorenz-Mie calculation of OPC scattering (μg/m³)
DateTimeUTC,F1_M11,P_M11,Q1_M11,Q2_M11,T1_M11,T2_M11,T3_M11,T4_M11,T5_M11,U1_M11,ZSPAN_M11,X0_M11,X2_M11,X1_M11
2023-12-15 05:00:00,SystemResetWarning,0832.2,5.00,000.00,018.8,017.9,000.0,027.2,020.0,22.5,0000.7,0030.19,0021.08,0020.10
2023-12-15 05:01:00,SystemResetWarning,0832.3,5.00,000.00,018.7,017.9,000.0,027.2,020.0,22.4,0000.7,0030.18,0021.10,0020.10
2023-12-15 05:02:00,SystemResetWarning,0832.3,5.00,000.00,018.7,017.8,000.0,027.2,020.0,22.5,0000.8,0030.10,0021.13,0020.14
2023-12-15 05:03:00,SystemResetWarning,0832.3,5.00,000.00,018.7,017.8,000.0,027.2,020.0,22.6,0000.8,0030.05,0021.11,0020.13
2023-12-15 05:04:00,SystemResetWarning,0832.3,5.00,000.00,018.7,017.8,000.0,027.2,020.0,22.6,0000.8,0029.57,0021.01,0020.07
2023-12-15 05:05:00,SystemResetWarning,0832.2,5.00,000.00,018.7,017.7,000.0,027.2,020.0,22.8,0000.9,0029.65,0021.04,0020.06
2023-12-15 05:06:00,SystemResetWarning,0832.2,5.00,000.00,018.7,017.7,000.0,027.2,020.0,22.9,0001.0,0029.45,0021.07,0020.06
2023-12-15 05:07:00,SystemResetWarning,0832.2,5.00,000.00,018.7,017.7,000.0,027.2,020.0,22.9,0001.1,0029.94,0021.06,0020.03
2023-12-15 05:08:00,SystemResetWarning,0832.2,5.00,000.00,018.7,017.7,000.0,027.2,020.0,23.0,0000.9,0031.03,0021.10,0020.04
2023-12-15 05:09:00,SystemResetWarning,0832.3,5.00,000.00,018.7,017.7,000.0,027.2,020.0,22.9,0000.9,0031.15,0021.08,0020.03
2023-12-15 05:10:00,SystemResetWarning,0832.3,5.00,000.00,018.7,017.7,000.0,027.2,020.0,22.7,0000.8,0031.10,0021.05,0020.01
2023-12-15 05:11:00,SystemResetWarning,0832.3,4.99,000.00,018.7,017.7,000.0,027.2,020.0,22.9,0000.8,0031.19,0021.11,0020.03
2023-12-15 05:12:00,SystemResetWarning,0832.3,5.00,000.00,018.7,017.6,000.0,027.2,020.0,23.0,0000.7,0031.48,0021.09,0020.01
2023-12-15 05:13:00,SystemResetWarning,0832.3,5.00,000.00,018.7,017.6,000.0,027.2,020.0,23.1,0000.6,0031.48,0020.96,0019.87
2023-12-15 05:14:00,SystemResetWarning,0832.3,4.99,000.00,018.7,017.6,000.0,027.2,020.0,23.1,0000.7,0031.40,0020.98,0019.90
2023-12-15 05:15:00,SystemResetWarning,0832.4,5.00,000.00,018.7,017.6,000.0,027.2,020.0,23.1,0000.7,0031.55,0021.09,0019.99
2023-12-15 05:16:00,SystemResetWarning,0832.5,5.01,000.00,018.7,017.7,000.0,027.2,020.0,23.2,0000.6,0031.49,0021.08,0020.02
2023-12-15 05:17:00,SystemResetWarning,0832.5,5.00,000.00,018.7,017.7,000.0,027.2,020.0,23.2,0000.5,0031.38,0021.07,0020.06
2023-12-15 05:18:00,SystemResetWarning,0832.6,5.00,000.00,018.7,017.7,000.0,027.2,020.0,23.3,0000.4,0030.98,0021.11,0020.12
2023-12-15 05:19:00,SystemResetWarning,0832.5,5.00,000.00,018.7,017.6,000.0,027.2,020.0,23.2,0000.6,0029.81,0021.04,0020.07
2023-12-15 05:20:00,SystemResetWarning,0832.5,5.01,000.00,018.7,017.6,000.0,027.2,020.0,23.2,0000.7,0029.70,0021.00,0020.06
2023-12-15 05:21:00,SystemResetWarning,0832.5,5.00,000.00,018.7,017.6,000.0,027.2,020.0,23.3,0000.7,0029.82,0021.00,0020.05
2023-12-15 05:22:00,SystemResetWarning,0832.5,5.00,000.00,018.7,017.6,000.0,027.2,020.0,23.3,0000.9,0029.72,0020.95,0020.01
2023-12-15 05:23:00,SystemResetWarning,0832.5,5.00,000.00,018.7,017.6,000.0,027.2,020.0,23.3,0000.8,0029.29,0020.87,0019.98
2023-12-15 05:24:00,SystemResetWarning,0832.5,5.00,000.00,018.7,017.6,000.0,027.2,020.0,23.3,0000.9,0029.01,0020.92,0020.07
2023-12-15 05:25:00,SystemResetWarning,0832.5,5.00,000.00,018.7,017.6,000.0,027.2,020.0,23.3,0000.9,0029.18,0020.95,0020.09
2023-12-15 05:26:00,SystemResetWarning,0832.6,5.00,000.00,018.7,017.6,000.0,027.2,020.0,23.4,0001.0,0029.10,0020.86,0020.02
2023-12-15 05:27:00,SystemResetWarning,0832.5,5.00,000.00,018.7,017.7,000.0,027.1,020.4,23.4,0001.0,0028.99,0020.79,0019.97
2023-12-15 05:28:00,SystemResetWarning,0832.5,5.00,000.00,018.8,018.4,000.0,027.2,020.8,23.3,0000.9,0029.04,0020.75,0019.92
2023-12-15 05:29:00,SystemResetWarning,0832.5,4.99,000.00,019.0,018.8,000.0,027.2,020.8,23.1,0000.9,0029.27,0020.74,0019.89
2023-12-15 05:30:00,SystemResetWarning,0832.5,4.99,000.00,019.0,018.8,000.0,027.2,020.6,23.1,0000.8,0029.30,0020.77,0019.92
2023-12-15 05:31:00,SystemResetWarning,0832.5,5.00,000.00,019.0,018.6,000.0,027.2,020.5,23.2,0000.8,0029.02,0020.81,0019.93
2023-12-15 05:32:00,SystemResetWarning,0832.5,5.01,000.00,018.9,018.5,000.0,027.2,020.4,23.2,0000.9,0028.81,0020.80,0019.94
2023-12-15 05:33:00,SystemResetWarning,0832.5,5.00,000.00,018.9,018.4,000.0,027.2,020.2,23.3,0000.8,0028.69,0020.83,0019.97
2023-12-15 05:34:00,SystemResetWarning,0832.5,5.00,000.00,018.9,018.3,000.0,027.2,020.1,23.4,0000.7,0028.78,0020.90,0020.03
2023-12-15 05:35:00,SystemResetWarning,0832.5,5.00,000.00,018.8,018.1,000.0,027.2,020.1,23.5,0000.6,0029.00,0021.04,0020.09
2023-12-15 05:36:00,SystemResetWarning,0832.5,5.00,000.00,018.8,018.0,000.0,027.2,020.0,23.5,0000.6,0029.03,0021.07,0020.10
2023-12-15 05:37:00,SystemResetWarning,0832.6,5.00,000.00,018.8,017.9,000.0,027.2,020.0,23.6,0000.5,0029.02,0021.08,0020.11
2023-12-15 05:38:00,SystemResetWarning,0832.5,5.00,000.00,018.8,017.9,000.0,027.2,020.0,23.7,0000.5,0029.05,0021.10,0020.12
2023-12-15 05:39:00,SystemResetWarning,0832.5,5.00,000.00,018.7,017.8,000.0,027.2,020.0,23.7,0000.5,0029.03,0021.12,0020.15
2023-12-15 05:40:00,SystemResetWarning,0832.5,5.00,000.00,018.7,017.8,000.0,027.2,020.0,23.8,0000.5,0029.07,0021.18,0020.19
2023-12-15 05:41:00,SystemResetWarning,0832.6,5.00,000.00,018.7,017.8,000.0,027.2,020.0,23.8,0000.6,0029.31,0021.21,0020.22
2023-12-15 05:42:00,SystemResetWarning,0832.5,5.00,000.00,018.7,017.8,000.0,027.2,020.0,23.8,0000.5,0029.63,0021.23,0020.25
2023-12-15 05:43:00,SystemResetWarning,0832.5,5.01,000.00,018.7,017.8,000.0,027.2,020.0,23.8,0000.4,0029.76,0021.28,0020.29
2023-12-15 05:44:00,SystemResetWarning,0832.5,5.00,000.00,018.7,017.7,000.0,027.2,020.0,23.7,0000.3,0030.08,0021.35,0020.33
2023-12-15 05:45:00,SystemResetWarning,0832.5,5.00,000.00,018.7,017.7,000.0,027.2,020.0,23.5,0000.3,0030.58,0021.42,0020.35
2023-12-15 05:46:00,SystemResetWarning,0832.6,5.00,000.00,018.7,017.6,000.0,027.2,020.0,23.6,0000.4,0030.75,0021.45,0020.37
2023-12-15 05:47:00,SystemResetWarning,0832.5,5.00,000.00,018.7,017.6,000.0,027.2,020.0,23.7,0000.4,0030.62,0021.38,0020.34
2023-12-15 05:48:00,SystemResetWarning,0832.5,5.00,000.00,018.7,017.6,000.0,027.2,020.0,23.7,0000.4,0030.74,0021.36,0020.29
2023-12-15 05:49:00,SystemResetWarning,0832.5,4.99,000.00,018.7,017.6,000.0,027.2,020.0,23.6,0000.4,0030.88,0021.30,0020.23
2023-12-15 05:50:00,SystemResetWarning,0832.5,5.00,000.00,018.7,017.6,000.0,027.2,020.0,23.6,0000.4,0030.31,0020.78,0019.69
2023-12-15 05:51:00,SystemResetWarning,0832.5,5.00,000.00,018.7,017.6,000.0,027.2,020.0,23.6,0000.4,0029.40,0020.07,0018.99
2023-12-15 05:52:00,SystemResetWarning,0832.5,5.00,000.00,018.7,017.6,000.0,027.2,020.0,23.7,0000.5,0028.64,0019.65,0018.58
2023-12-15 05:53:00,SystemResetWarning,0832.5,5.00,000.00,018.7,017.6,000.0,027.2,020.0,23.6,0000.5,0027.14,0018.99,0017.97
2023-12-15 05:54:00,SystemResetWarning,0832.5,5.00,000.00,018.7,017.6,000.0,027.2,020.0,23.6,0000.4,0026.23,0018.27,0017.28
2023-12-15 05:55:00,SystemResetWarning,0832.5,5.00,000.00,018.6,017.6,000.0,027.2,020.0,23.6,0000.4,0025.44,0017.69,0016.77
2023-12-15 05:56:00,SystemResetWarning,0832.5,5.00,000.00,018.6,017.6,000.0,027.2,020.0,23.6,0000.5,0023.94,0016.89,0016.04
2023-12-15 05:57:00,SystemResetWarning,0832.5,5.00,000.00,018.6,017.6,000.0,027.2,020.0,23.6,0000.6,0022.44,0015.92,0015.18
2023-12-15 05:58:00,SystemResetWarning,0832.5,5.00,000.00,018.7,017.6,000.0,027.2,020.0,23.6,0000.6,0021.38,0015.07,0014.38
2023-12-15 05:59:00,SystemResetWarning,0832.6,5.00,000.00,018.7,017.6,000.0,027.2,020.0,23.6,0000.5,0020.22,0014.25,0013.63
